Showing default

ASTRA 1P (SES 24), 60086

Orbit data source: Space-Track

ASTRA 1P (SES 24), 60086 is a payload satellite owned by SES (LU) in GEO that was launched on Thu, 20 Jun 2024 UTC via an FALCON 9 launch vehicle from the Air Force Eastern Test Range (AFETR). Payload-class satellites include a variety of spacecraft equipped with specific instruments for various scientific and technological missions. These include communications satellites like Starlink; space stations such as the ISS; scientific satellites like the Hubble; Earth observation satellites from companies like Planet Labs, Umbra, and HawkEye 360; GPS; miniature CubeSats for education and research; and military/defense satellites.

Not visible in the next 10 days
Identifier
60086, 2024-115A
Orbit
GEO
Country
Flag of LULU / SES
Related business
Manufacturer
Thales Alenia
Mission
Operational Commercial Communications
Bus & Motor
SPACEBUS NEO200, XPS/PPS-5000
Mass
~5,000 kg wet, ~4,030 kg dry
Launch date (UTC)
Icon of a cake. It is the launch day of the satellite!2024-06-20 (2 years ago)
Launch vehicle
FALCON 9
Launch site
Air Force Eastern Test Range (AFETR)
Object type
Payload
Rocket body
Debris
Shape & HBR
Box + 2 Pan, 22.5 m
Radar Cross Section
62.256 m², Large (>1 m²)

Expand to show TLE details & history
Last TLE update: 1 day ago

TLE from 1 day ago
0 ASTRA 1P (SES 24)
1 60086U 24115A   26170.84211356  .00000115  00000-0  00000-0 0  9996
2 60086   0.0580 357.1167 0000651  25.1211 208.1930  1.00275004  7222
Epoch: 2026-06-19T20:12Z
TLE epoch observation values (Epoch: 2026-06-19T20:12:38.611Z)
Latitude
-0.06217°
Longitude
19.2136°
Altitude
35,787.606 km
Speed
3.075 km/s
True Right ascension
15h 21m 45s
True Declination
0° 03' 44"
Sunlit
Object was in daylight at epoch
Visualization orbit readout
Latitude
Unknown
Longitude
Unknown
Altitude
Unknown
Speed
Unknown
Apparent Right ascension
Unknown
Apparent Declination
Unknown
Sunlit
N/A
Visualization observer readout
Local Sidereal Time
10:18:31
Azimuth
Unknown
Elevation
Unknown
Doppler factor
Unknown
Orbital elements
Apogee altitude
35,789.508 km
Perigee altitude
35,784.018 km
Semi-major axis
42,164.9 km
Eccentricity
0.00007
Inclination
0.058°
RAAN
357.1167°
Arg. of periapsis
25.1211°
True anomaly
208.18948°
Mean anomaly
208.193°
Eccentric anomaly
208.19124°
Mean motion
0.25068 °/min
Orbital period
1,436.1 mins
BSTAR
0
Loading maneuver chart data...
Computing Atmospheric mass density...
Loading historical data...
Loading historical data...
Loading historical data...
Loading historical data...
Loading historical data...
Loading historical data...
Loading historical data...
Other satellites on launch #115 in the year 2024 (2024-06-20 UTC)

Documentation

Showing up to 5 results
|